Starlink 11652

operational
NORAD ID: 63315 Int'l Des: 2025-057 Owner: SPXS Country: US Constellation: starlink
LEOCIRCULAR

About Starlink 11652

Description loading...

Live Position

Loading 3D Globe...

Upcoming Passes

Altitude History

Altitude vs Time

uPlot chart will show altitude changes over time

Two-Line Element Set

1 63315U 25057J 25304.20708287 .00264660 00000-0 19815-2 0 9995
2 63315 42.9979 324.9830 0001805 168.6219 191.4690 15.71073551 36842
Epoch: Oct 31, 2025 • Age: 22 hours

Current Status

Altitude 355.1 km
Velocity 7.70 km/s
Sub-Earth Point -10.52°S, 62.84°E
Launch Date Mar 18, 2025
Age 0.6 years
Type internet

Technical Details

Classification Payload
Mass 960.00 kg
Dry Mass 910.00 kg
Total Mass 960.00 kg
Length 0.30 m
Diameter 4.10 m
Span 29.00 m
Shape Box + pan
Manufacturer SPXS
Bus Type Starlink V2MD
Phase Status In Orbit
Owner/State SPXS/US

Large Constellations

Loading constellations...